sat.trackr.live / text

‹ back to catalog

STARLINK-4476

NORAD 53419 · 2022-097AH

PAYLOAD ACTIVE UNKNOWN

§ Identity

Operator
Country
US
Launch date
2022-08-10
Launch site
AFETR
Launch vehicle
Mass (kg)
RCS (m²)

Purposes: comms

External: N2YO · Heavens-Above · Gunter

§ Orbital elements

Epoch: 2026-05-25T02:59:52.445184Z

Period
95.44 min
Inclination
53.2133°
Eccentricity
0.0001148
Mean motion
15.08815757 rev/d
Perigee alt
539.0 km
Apogee alt
540.6 km
Semi-major
6,918.0 km
B*
2.5503e-4
RAAN
130.9862°
Arg perigee
78.3377°
Mean anomaly
281.7744°
Rev number
21,016

§ Raw data

STARLINK-44761 53419U 22097AH  26145.12491256  .00003771  00000+0  25503-3 0  99952 53419  53.2133 130.9862 0001148  78.3377 281.7744 15.08815757210169

JSON: /api/v1/satellites/53419 · /tle

For live sub-satellite position, see the globe view (requires WebGL).

§ Visibility from observer

Set your observer location to see the next 7 days of passes ≥ 10°. The values pass through the URL so the page stays shareable.

No JS? Fill the form by hand. The geolocation button needs JavaScript.